WetterOnline ( https://www.wetteronline.de )

Wetter aktuell Bogliaco

Aktuelles Wetter: Paganella (2129m)

6-stündlich | Neueste Meldungen
Ortszeit Temperatur Wetter
Sa, 20.07. 20:00 15.6° C leicht bewölkt
Sa, 20.07. 14:00 13.6° C leicht bewölkt
Sa, 20.07. 8:00 9.2° C wolkig
Sa, 20.07. 2:00 9.0° C leicht bewölkt
Fr, 19.07. 20:00 13.0° C Nebel (zunehmend)
Fr, 19.07. 14:00 19.0° C leicht bewölkt
Fr, 19.07. 8:00 13.8° C leicht bewölkt
Fr, 19.07. 2:00 13.8° C wolkenlos
Ortszeit Temperatur Wetter
Sa, 20.07. 21:00 14.4° C leicht bewölkt
Sa, 20.07. 20:00 15.6° C leicht bewölkt
Sa, 20.07. 19:00 15.2° C leicht bewölkt
Sa, 20.07. 18:00 15.2° C leicht bewölkt
Sa, 20.07. 17:00 15.4° C leicht bewölkt
Sa, 20.07. 16:00 15.0° C leicht bewölkt
Sa, 20.07. 15:00 14.2° C leicht bewölkt
Ortszeit Relative Feuchte Sichtweite
Sa, 20.07. 20:00 59% 40 km
Sa, 20.07. 14:00 58% 40 km
Sa, 20.07. 8:00 70% 30 km
Sa, 20.07. 2:00 86% 30 km
Fr, 19.07. 20:00 100% 0.9 km
Fr, 19.07. 14:00 73% 15 km
Fr, 19.07. 8:00 93% 15 km
Fr, 19.07. 2:00 90% 20 km
Ortszeit Relative Feuchte Sichtweite
Sa, 20.07. 21:00 57% 40 km
Sa, 20.07. 20:00 59% 40 km
Sa, 20.07. 19:00 58% 40 km
Sa, 20.07. 18:00 56% 40 km
Sa, 20.07. 17:00 58% 40 km
Sa, 20.07. 16:00 54% 40 km
Sa, 20.07. 15:00 58% 40 km
Ortszeit Niederschlagsmenge Niederschlagsart
Sa, 20.07. 20:00 0.0 l/m2 in 12 Std. -
Sa, 20.07. 14:00 0.0 l/m2 in 6 Std. -
Sa, 20.07. 8:00 7 l/m2 in 12 Std. -
Sa, 20.07. 2:00 7 l/m2 in 6 Std. Regen, Nebel
Fr, 19.07. 20:00 0.0 l/m2 in 12 Std. Gewitter, Nebel
Fr, 19.07. 14:00 0.0 l/m2 in 6 Std. -
Fr, 19.07. 8:00 0.0 l/m2 in 12 Std. -
Fr, 19.07. 2:00 0.0 l/m2 in 6 Std. -
Ortszeit Niederschlagsmenge Niederschlagsart
Sa, 20.07. 21:00 keine Meldung -
Sa, 20.07. 20:00 keine Meldung -
Sa, 20.07. 19:00 keine Meldung -
Sa, 20.07. 18:00 keine Meldung -
Sa, 20.07. 17:00 keine Meldung -
Sa, 20.07. 16:00 keine Meldung -
Sa, 20.07. 15:00 keine Meldung -
Ortszeit Stärke Spitze Richtung
km/h Bft. km/h Grad Sektor
Sa, 20.07. 20:00 7 2 - 190° S
Sa, 20.07. 14:00 11 2 - 10° N
Sa, 20.07. 8:00 22 4 - 350° N
Sa, 20.07. 2:00 33 5 - 10° N
Fr, 19.07. 20:00 15 3 - 350° N
Fr, 19.07. 14:00 11 2 - 190° S
Fr, 19.07. 8:00 6 1 - 360° N
Fr, 19.07. 2:00 9 2 - 180° S
Ortszeit Stärke Spitze Richtung
km/h Bft. km/h Grad Sektor
Sa, 20.07. 21:00 7 2 - 200° S
Sa, 20.07. 20:00 7 2 - 190° S
Sa, 20.07. 19:00 0 0 - - -
Sa, 20.07. 18:00 0 0 - - -
Sa, 20.07. 17:00 0 0 - - -
Sa, 20.07. 16:00 7 2 - 360° N
Sa, 20.07. 15:00 9 2 - 30° NO
Ortszeit Untergrenze Bedeckung Gattung
total tief tief mittel hoch
Sa, 20.07. 20:00 600 m 4/8 1/8 Cu Ac Ci
Sa, 20.07. 14:00 600 m 4/8 3/8 Cu Ac -
Sa, 20.07. 8:00 2100 m 8/8 8/8 - As -
Sa, 20.07. 2:00 6000 m 3/8 3/8 - - Ci
Fr, 19.07. 20:00 - 8/8 - - - -
Fr, 19.07. 14:00 <30 m 4/8 3/8 Cu Ac -
Fr, 19.07. 8:00 <30 m 4/8 3/8 Cu Ac -
Fr, 19.07. 2:00 - 0/8 0/8 - - -
Ortszeit Bedeckungsgrad in Achtel und Wolkenuntergrenze
Sa, 20.07. 21:00 1(600m)
Sa, 20.07. 20:00 1(600m)
Sa, 20.07. 19:00 3(600m)
Sa, 20.07. 18:00 3(600m)
Sa, 20.07. 17:00 3(600m) 3(2100m)
Sa, 20.07. 16:00 3(600m) 3(2100m)
Sa, 20.07. 15:00 3(600m)
Ortszeit Stationsdruck (hPa) Tendenz (hPa in 3 Std.)
Sa, 20.07. 20:00 788 - 0,3
Sa, 20.07. 14:00 789 0,0
Sa, 20.07. 8:00 789 - 1,1
Sa, 20.07. 2:00 792 - 1,3
Fr, 19.07. 20:00 793 - 0,8
Fr, 19.07. 14:00 795 - 0,5
Fr, 19.07. 8:00 795 - 0,5
Fr, 19.07. 2:00 796 0,0
Ortszeit Stationsdruck (hPa) Tendenz (hPa in 3 Std.)
Sa, 20.07. 21:00 788 - 0,3
Sa, 20.07. 20:00 788 - 0,3
Sa, 20.07. 19:00 788 - 0,4
Sa, 20.07. 18:00 789 - 0,2
Sa, 20.07. 17:00 789 - 0,2
Sa, 20.07. 16:00 789 - 0,3
Sa, 20.07. 15:00 789 0,0
Ortszeit Schneehöhe (cm)
Sa, 20.07. 20:00 -
Sa, 20.07. 14:00 -
Sa, 20.07. 8:00 0
Sa, 20.07. 2:00 -
Fr, 19.07. 20:00 -
Fr, 19.07. 14:00 -
Fr, 19.07. 8:00 0
Fr, 19.07. 2:00 -
Ortszeit Schneehöhe (cm)
Sa, 20.07. 21:00 -
Sa, 20.07. 20:00 -
Sa, 20.07. 19:00 -
Sa, 20.07. 18:00 -
Sa, 20.07. 17:00 -
Sa, 20.07. 16:00 -
Sa, 20.07. 15:00 -
Link zu dieser Seite / Seite empfehlen

Das Wetter in ...